Time[GMT],significant_wave_height[m](0m),dominant_wave_period[s](0m),max_wave_height[m](0m),mean_wave_direction[degrees](0m),mean_wave_direction_spread[degrees](0m)
2021-05-28 16:00, 1.01,10.0,1.41,31.50,33.00
2021-05-28 17:00, 0.86,8.7,1.49,36.50,37.00
2021-05-28 18:00, 1.02,9.5,1.46,39.50,36.00
2021-05-28 19:00, 0.90,8.7,1.42,35.50,37.00
2021-05-28 20:00, 0.90,8.7,1.74,37.50,35.00
2021-05-28 21:00, 0.89,9.1,1.60,32.50,36.00
2021-05-28 22:00, 0.88,9.1,1.84,28.50,34.00
2021-05-28 23:00, 0.87,9.1,1.41,31.50,36.00
2021-05-29 00:00, 0.86,9.5,1.56,30.50,37.00
2021-05-29 01:00, 0.88,8.7,1.36,32.50,32.00
2021-05-29 02:00, 0.87,8.3,1.57,30.50,32.00
2021-05-29 03:00, 0.86,9.1,1.27,30.50,34.00
2021-05-29 04:00, 0.97,8.3,1.53,31.50,32.00
2021-05-29 05:00, 0.85,10.0,1.41,31.50,34.00
2021-05-29 06:00, 0.86,9.5,1.36,29.50,35.00
2021-05-29 07:00, 0.91,8.7,1.49,38.50,33.00
2021-05-29 08:00, 0.93,8.7,1.68,30.50,30.00
2021-05-29 09:00, 0.76,10.0,1.23,36.50,36.00
2021-05-29 10:00, 0.82,9.1,1.25,28.50,35.00
2021-05-29 11:00, 0.90,9.5,1.50,34.50,33.00
2021-05-29 12:00, 0.81,9.5,1.32,39.50,36.00
2021-05-29 13:00, 0.86,9.5,1.31,40.50,35.00
2021-05-29 14:00, 0.94,9.5,1.62,41.50,36.00
2021-05-29 15:00, 0.91,9.1,1.51,36.50,33.00
2021-05-29 16:00, 0.91,9.1,1.49,40.50,33.00
2021-05-29 17:00, 0.84,9.5,1.49,38.50,31.00
2021-05-29 18:00, 0.80,9.1,1.35,43.50,36.00
2021-05-29 19:00, 0.92,9.1,1.46,45.50,35.00
2021-05-29 20:00, 0.90,9.1,1.30,46.50,33.00
2021-05-29 21:00, 0.88,9.1,1.31,48.50,35.00
2021-05-29 22:00, 0.89,8.3,1.35,45.50,33.00
2021-05-29 23:00, 0.82,9.1,1.32,47.50,35.00
2021-05-30 00:00, 0.79,9.1,1.23,48.50,34.00
2021-05-30 01:00, 0.69,9.5,1.30,39.50,35.00
2021-05-30 02:00, 0.78,9.1,1.30,41.50,32.00
2021-05-30 03:00, 0.80,8.3,1.28,46.50,30.00
2021-05-30 04:00, 0.88,8.7,1.39,45.50,29.00
2021-05-30 05:00, 0.84,4.7,1.47,49.50,31.00
2021-05-30 06:00, 0.85,9.1,1.24,44.50,31.00
2021-05-30 07:00, 0.78,9.5,1.17,45.50,32.00
2021-05-30 08:00, 0.81,4.8,1.28,46.50,32.00
2021-05-30 09:00, 0.84,5.0,1.34,51.50,31.00
2021-05-30 10:00, 0.93,9.5,1.32,53.50,30.00
2021-05-30 11:00, 1.02,5.1,1.71,55.50,28.00
2021-05-30 12:00, 1.00,4.8,1.72,58.50,29.00
2021-05-30 13:00, 0.98,5.0,1.56,61.50,35.00
2021-05-30 14:00, 1.05,5.6,1.73,65.50,32.00
2021-05-30 15:00, 1.12,5.7,2.31,61.50,30.00
2021-05-30 16:00, 1.19,5.3,1.78,67.50,29.00
2021-05-30 17:00, 1.12,5.9,1.96,62.50,32.00
2021-05-30 18:00, 1.05,5.7,1.64,58.50,29.00
2021-05-30 19:00, 1.14,5.6,1.99,61.50,29.00
2021-05-30 20:00, 1.05,5.6,1.84,54.50,33.00
2021-05-30 21:00, 1.07,5.7,1.72,57.50,31.00
2021-05-30 22:00, 0.94,5.6,1.62,54.50,34.00
2021-05-30 23:00, 0.97,9.1,1.46,54.50,30.00
2021-05-31 00:00, 0.85,8.7,1.22,52.50,33.00
2021-05-31 01:00, 0.92,9.5,1.64,54.50,31.00
2021-05-31 02:00, 0.97,8.0,1.80,52.50,30.00
2021-05-31 03:00, 0.94,5.6,1.55,53.50,30.00
2021-05-31 04:00, 1.06,5.6,1.91,53.50,29.00
2021-05-31 05:00, 1.10,5.0,1.85,50.50,28.00
2021-05-31 06:00, 1.11,5.4,1.99,52.50,28.00
2021-05-31 07:00, 1.12,5.3,1.60,55.50,27.00
2021-05-31 08:00, 1.14,5.4,2.08,51.50,29.00
2021-05-31 09:00, 1.20,5.3,2.43,56.50,32.00
2021-05-31 10:00, 1.10,5.4,1.86,57.50,31.00
2021-05-31 11:00, 0.98,5.3,1.99,53.50,29.00
2021-05-31 12:00, 0.92,5.6,1.34,55.50,30.00
2021-05-31 13:00, 0.93,6.7,1.35,57.50,32.00
2021-05-31 14:00, 0.98,5.7,1.62,59.50,34.00
2021-05-31 15:00, 1.08,5.6,1.64,59.50,35.00
2021-05-31 16:00, 1.13,5.7,1.71,63.50,33.00
2021-05-31 17:00, 1.14,5.6,2.05,65.50,34.00
2021-05-31 18:00, 1.05,5.3,1.52,54.50,35.00
2021-05-31 19:00, 1.11,8.0,1.69,51.50,33.00
2021-05-31 20:00, 1.09,5.3,1.63,46.50,35.00
2021-05-31 21:00, 1.06,7.1,1.55,56.50,35.00
2021-05-31 22:00, 1.08,7.4,1.78,56.50,31.00
2021-05-31 23:00, 1.00,6.7,1.74,53.50,35.00
2021-06-01 00:00, 1.04,4.5,1.99,50.50,31.00
2021-06-01 01:00, 0.97,5.9,1.71,50.50,31.00
2021-06-01 02:00, 1.03,7.1,1.79,53.50,32.00
2021-06-01 03:00, 1.03,5.7,1.96,52.50,33.00
2021-06-01 04:00, 1.12,5.6,1.88,53.50,32.00
2021-06-01 05:00, 1.06,6.7,1.80,50.50,30.00
2021-06-01 06:00, 1.10,5.3,1.99,52.50,33.00
2021-06-01 07:00, 1.15,5.6,1.96,48.50,34.00
2021-06-01 08:00, 1.10,7.7,1.96,51.50,32.00
2021-06-01 09:00, 1.07,8.0,1.93,48.50,35.00
2021-06-01 10:00, 1.16,7.1,1.86,50.50,31.00
2021-06-01 11:00, 1.16,7.7,1.88,48.50,30.00
2021-06-01 12:00, 1.19,7.7,1.81,49.50,28.00
2021-06-01 13:00, 1.33,7.4,2.11,55.50,28.00
2021-06-01 14:00, 1.52,7.4,2.27,55.50,27.00
2021-06-01 15:00, 1.53,7.1,2.18,55.50,28.00
2021-06-01 16:00, 1.60,6.3,2.84,58.50,28.00
2021-06-01 17:00, 1.55,7.1,2.34,53.50,30.00
2021-06-01 18:00, 1.29,7.7,2.11,57.50,30.00
2021-06-01 19:00, 1.38,8.0,2.14,50.50,30.00
2021-06-01 20:00, 1.41,7.1,1.92,53.50,30.00
2021-06-01 21:00, 1.32,7.7,2.32,55.50,30.00
2021-06-01 22:00, 1.16,7.7,1.72,54.50,33.00
2021-06-01 23:00, 1.29,6.9,2.48,49.50,30.00
2021-06-02 00:00, 1.21,7.1,2.48,47.50,29.00
2021-06-02 01:00, 1.18,5.6,2.42,46.50,31.00
2021-06-02 02:00, 1.35,6.1,1.95,50.50,29.00
2021-06-02 03:00, 1.39,6.9,2.28,54.50,30.00
2021-06-02 04:00, 1.30,7.4,2.17,54.50,33.00
2021-06-02 05:00, 1.37,7.7,2.07,52.50,32.00
2021-06-02 06:00, 1.43,8.0,2.41,54.50,28.00
2021-06-02 07:00, 1.38,6.7,2.41,52.50,31.00
2021-06-02 08:00, 1.38,6.3,2.34,54.50,32.00
2021-06-02 09:00, 1.31,5.7,1.96,55.50,34.00
2021-06-02 10:00, 1.28,6.3,1.96,55.50,32.00
2021-06-02 11:00, 1.31,7.4,2.19,52.50,30.00
2021-06-02 12:00, 1.13,7.1,1.76,50.50,35.00
2021-06-02 13:00, 1.26,8.0,2.00,52.50,32.00
2021-06-02 14:00, 1.26,7.7,1.77,54.50,31.00
2021-06-02 15:00, 1.21,7.1,1.99,56.50,32.00
2021-06-02 16:00, 1.11,7.1,1.72,54.50,32.00
2021-06-02 17:00, 1.14,6.9,2.01,54.50,33.00
2021-06-02 18:00, 1.08,6.7,1.74,53.50,34.00
2021-06-02 19:00, 1.20,5.7,1.94,52.50,30.00
2021-06-02 20:00, 1.10,5.6,1.56,50.50,32.00
2021-06-02 21:00, 1.05,4.9,1.71,52.50,35.00
2021-06-02 22:00, 1.11,5.7,1.81,51.50,32.00
2021-06-02 23:00, 1.13,5.1,1.70,50.50,32.00
2021-06-03 00:00, 1.07,7.1,1.81,50.50,34.00
2021-06-03 01:00, 1.09,5.9,1.69,52.50,35.00
2021-06-03 02:00, 1.16,6.7,1.84,56.50,34.00
2021-06-03 03:00, 1.05,6.5,1.73,56.50,35.00
2021-06-03 04:00, 1.17,5.9,1.88,57.50,32.00
2021-06-03 05:00, 1.13,6.3,1.75,58.50,35.00
2021-06-03 06:00, 1.31,5.7,2.45,54.50,30.00
2021-06-03 07:00, 1.24,6.1,1.87,52.50,31.00
2021-06-03 08:00, 1.16,5.6,2.06,56.50,32.00
2021-06-03 09:00, 1.16,5.9,2.36,53.50,35.00
2021-06-03 10:00, 1.19,5.9,2.27,56.50,34.00
2021-06-03 11:00, 1.15,6.1,1.87,53.50,34.00
2021-06-03 12:00, 1.22,6.3,2.24,55.50,32.00
2021-06-03 13:00, 1.26,5.6,1.96,54.50,33.00
2021-06-03 14:00, 1.28,5.4,2.03,61.50,32.00
2021-06-03 15:00, 1.28,6.5,2.12,60.50,31.00
2021-06-03 16:00, 1.41,6.5,2.52,58.50,32.00
2021-06-03 17:00, 1.38,8.0,2.09,55.50,31.00
2021-06-03 18:00, 1.30,5.7,2.25,55.50,30.00
2021-06-03 19:00, 1.36,6.3,2.28,53.50,30.00
2021-06-03 20:00, 1.33,8.3,2.71,49.50,32.00
2021-06-03 21:00, 1.27,7.1,1.85,49.50,32.00
2021-06-03 22:00, 1.31,6.3,2.11,47.50,32.00
2021-06-03 23:00, 1.25,7.7,2.10,43.50,32.00
2021-06-04 00:00, 1.22,8.3,2.13,46.50,32.00
2021-06-04 01:00, 1.22,5.9,1.95,47.50,33.00
2021-06-04 02:00, 1.24,8.3,2.09,46.50,31.00
2021-06-04 03:00, 1.30,6.5,2.27,47.50,30.00
2021-06-04 04:00, 1.23,6.3,2.10,46.50,32.00
2021-06-04 05:00, 1.34,9.1,2.44,50.50,31.00
2021-06-04 06:00, 1.34,9.1,2.37,47.50,33.00
2021-06-04 07:00, 1.38,5.7,2.11,52.50,33.00
2021-06-04 08:00, 1.56,8.3,2.60,57.50,31.00
2021-06-04 09:00, 1.52,7.4,2.31,50.50,30.00
2021-06-04 10:00, 1.42,8.7,1.94,50.50,32.00
2021-06-04 11:00, 1.39,6.1,2.10,53.50,30.00
2021-06-04 12:00, 1.39,8.7,2.55,46.50,31.00
2021-06-04 13:00, 1.46,8.3,2.15,45.50,30.00
2021-06-04 14:00, 1.52,6.9,2.30,51.50,29.00
2021-06-04 15:00, 1.48,6.3,2.29,49.50,32.00
2021-06-04 16:00, 1.41,8.0,2.86,53.50,34.00
2021-06-04 17:00, 1.46,6.5,2.50,54.50,32.00
2021-06-04 18:00, 1.49,6.9,2.59,52.50,31.00
2021-06-04 19:00, 1.51,5.9,3.18,52.50,30.00
2021-06-04 20:00, 1.51,6.9,2.07,52.50,28.00
2021-06-04 21:00, 1.35,6.9,2.23,51.50,30.00
2021-06-04 22:00, 1.53,8.3,2.17,49.50,30.00
2021-06-04 23:00, 1.44,8.3,2.29,47.50,28.00
2021-06-05 00:00, 1.44,8.3,2.33,50.50,28.00
2021-06-05 01:00, 1.46,8.0,2.75,45.50,29.00
2021-06-05 02:00, 1.35,6.1,2.17,50.50,28.00
2021-06-05 03:00, 1.51,8.0,2.66,49.50,29.00
2021-06-05 04:00, 1.55,8.7,2.73,49.50,30.00
2021-06-05 05:00, 1.69,8.0,2.75,51.50,28.00
2021-06-05 06:00, 1.48,7.7,2.28,49.50,29.00
2021-06-05 07:00, 1.62,7.4,2.97,50.50,28.00
2021-06-05 08:00, 1.49,7.7,2.37,50.50,29.00
2021-06-05 09:00, 1.66,8.0,2.29,52.50,27.00
2021-06-05 10:00, 1.56,8.7,2.51,50.50,30.00
2021-06-05 11:00, 1.71,8.7,2.41,53.50,26.00
2021-06-05 12:00, 1.71,8.3,2.55,53.50,26.00
2021-06-05 13:00, 1.51,8.7,2.36,54.50,32.00
2021-06-05 14:00, 1.46,6.5,2.28,51.50,31.00
2021-06-05 15:00, 1.63,7.4,2.36,51.50,30.00
2021-06-05 16:00, 1.68,8.0,3.18,54.50,26.00
2021-06-05 17:00, 1.73,8.3,2.90,52.50,27.00
2021-06-05 18:00, 1.64,8.7,2.61,51.50,30.00
2021-06-05 19:00, 1.53,7.4,2.56,50.50,30.00
2021-06-05 20:00, 1.76,6.3,3.14,53.50,28.00
2021-06-05 21:00, 1.66,7.7,2.62,53.50,28.00
2021-06-05 22:00, 1.64,7.4,2.32,50.50,25.00
2021-06-05 23:00, 1.62,8.0,2.33,51.50,28.00
2021-06-06 00:00, 1.45,7.7,2.23,51.50,28.00
2021-06-06 01:00, 1.76,6.9,2.91,50.50,23.00
2021-06-06 02:00, 1.63,7.7,2.48,52.50,28.00
2021-06-06 03:00, 1.64,8.0,2.32,49.50,27.00
2021-06-06 04:00, 1.55,8.3,2.51,50.50,27.00
2021-06-06 05:00, 1.72,8.3,2.60,52.50,26.00
2021-06-06 06:00, 1.68,8.0,2.94,54.50,27.00
2021-06-06 07:00, 1.56,6.7,2.31,53.50,30.00
2021-06-06 08:00, 1.52,8.0,2.23,49.50,30.00
2021-06-06 09:00, 1.38,7.4,2.27,53.50,33.00
2021-06-06 10:00, 1.58,6.7,2.23,50.50,31.00
2021-06-06 11:00, 1.58,8.0,3.06,55.50,30.00
2021-06-06 12:00, 1.47,7.7,2.40,54.50,33.00
2021-06-06 13:00, 1.48,6.9,2.58,53.50,33.00
2021-06-06 14:00, 1.47,8.0,2.20,51.50,30.00
2021-06-06 15:00, 1.38,7.7,2.18,53.50,32.00
2021-06-06 16:00, 1.40,8.0,2.68,53.50,30.00
2021-06-06 17:00, 1.43,7.4,2.27,51.50,30.00
2021-06-06 18:00, 1.47,6.5,2.21,54.50,32.00
2021-06-06 19:00, 1.39,6.5,2.16,54.50,32.00
2021-06-06 20:00, 1.37,7.1,2.29,54.50,32.00
2021-06-06 21:00, 1.45,6.1,2.41,52.50,31.00
2021-06-06 22:00, 1.46,6.3,2.13,52.50,31.00
2021-06-06 23:00, 1.43,6.1,2.35,54.50,31.00
2021-06-07 00:00, 1.52,6.1,2.40,47.50,29.00
2021-06-07 01:00, 1.39,6.5,2.06,54.50,32.00
2021-06-07 02:00, 1.38,6.7,2.80,51.50,32.00
2021-06-07 03:00, 1.42,7.1,2.47,50.50,30.00
2021-06-07 04:00, 1.49,6.1,2.22,50.50,28.00
2021-06-07 05:00, 1.55,6.9,2.67,53.50,28.00
2021-06-07 06:00, 1.42,6.7,2.78,55.50,32.00
2021-06-07 07:00, 1.58,7.1,2.46,51.50,29.00
2021-06-07 08:00, 1.48,7.1,2.27,53.50,30.00
2021-06-07 09:00, 1.59,7.4,2.49,52.50,32.00
2021-06-07 10:00, 1.50,8.0,2.60,52.50,29.00
2021-06-07 11:00, 1.35,7.4,2.56,54.50,33.00
2021-06-07 12:00, 1.45,7.1,2.45,53.50,33.00
2021-06-07 13:00, 1.40,7.4,2.57,45.50,33.00
2021-06-07 14:00, 1.45,7.1,2.27,50.50,30.00
2021-06-07 15:00, 1.36,7.4,2.40,53.50,31.00
2021-06-07 16:00, 1.42,7.4,2.28,49.50,29.00
2021-06-07 17:00, 1.36,7.7,2.35,47.50,32.00
2021-06-07 18:00, 1.35,8.0,2.24,49.50,33.00
2021-06-07 19:00, 1.40,7.1,2.54,50.50,33.00
2021-06-07 20:00, 1.39,6.9,2.16,50.50,33.00
2021-06-07 21:00, 1.47,7.7,2.38,53.50,33.00
2021-06-07 22:00, 1.41,6.1,2.40,49.50,34.00
2021-06-07 23:00, 1.32,8.3,2.35,52.50,32.00
2021-06-08 00:00, 1.35,8.0,2.49,52.50,29.00
2021-06-08 01:00, 1.44,7.4,2.37,54.50,32.00
2021-06-08 02:00, 1.31,7.7,2.20,51.50,33.00
2021-06-08 03:00, 1.30,8.0,2.15,51.50,34.00
2021-06-08 04:00, 1.34,7.7,1.87,54.50,33.00
2021-06-08 05:00, 1.37,8.0,2.17,52.50,32.00
2021-06-08 06:00, 1.35,8.0,2.19,52.50,30.00
2021-06-08 07:00, 1.42,7.4,2.86,53.50,29.00
2021-06-08 08:00, 1.38,7.1,2.50,51.50,30.00
2021-06-08 09:00, 1.39,7.1,2.21,54.50,30.00
2021-06-08 10:00, 1.43,7.7,2.31,53.50,30.00
2021-06-08 11:00, 1.46,7.7,2.27,47.50,32.00
2021-06-08 12:00, 1.67,6.7,2.50,52.50,31.00
2021-06-08 13:00, 1.50,8.3,2.82,58.50,33.00
2021-06-08 14:00, 1.59,8.0,2.98,59.50,31.00
2021-06-08 15:00, 1.57,7.7,2.33,55.50,32.00
2021-06-08 16:00, 1.47,8.3,2.32,58.50,31.00
2021-06-08 17:00, 1.53,6.1,2.01,56.50,33.00
2021-06-08 18:00, 1.66,6.3,2.67,55.50,29.00
2021-06-08 19:00, 1.46,5.9,2.44,59.50,34.00
2021-06-08 20:00, 1.60,6.9,2.63,56.50,30.00
2021-06-08 21:00, 1.53,7.4,2.55,56.50,31.00
2021-06-08 22:00, 1.59,6.9,2.44,51.50,31.00
2021-06-08 23:00, 1.45,7.7,2.50,52.50,31.00
2021-06-09 00:00, 1.40,6.7,2.33,52.50,31.00
2021-06-09 01:00, 1.29,6.1,2.09,52.50,31.00
2021-06-09 02:00, 1.31,7.7,2.11,52.50,33.00
2021-06-09 03:00, 1.29,6.9,1.85,52.50,30.00
2021-06-09 04:00, 1.28,6.7,2.25,52.50,31.00
2021-06-09 05:00, 1.33,6.3,1.80,55.50,27.00
2021-06-09 06:00, 1.32,7.1,2.14,53.50,32.00
2021-06-09 07:00, 1.30,7.7,2.46,57.50,30.00
2021-06-09 08:00, 1.44,6.3,2.28,55.50,29.00
2021-06-09 09:00, 1.38,8.0,2.05,59.50,28.00
2021-06-09 10:00, 1.29,6.5,2.20,55.50,31.00
2021-06-09 11:00, 1.23,6.9,2.28,54.50,33.00
2021-06-09 12:00, 1.24,6.5,2.04,54.50,31.00
2021-06-09 13:00, 1.17,6.3,2.12,54.50,34.00
2021-06-09 14:00, 1.25,8.0,2.07,58.50,33.00
2021-06-09 15:00, 1.15,6.7,1.96,60.50,33.00
2021-06-09 16:00, 1.22,7.7,2.36,53.50,36.00
2021-06-09 17:00, 1.13,8.0,2.13,58.50,34.00
2021-06-09 18:00, 1.17,6.3,1.76,58.50,34.00
2021-06-09 19:00, 1.14,6.3,1.84,57.50,32.00
2021-06-09 20:00, 1.20,8.0,2.00,56.50,27.00
2021-06-09 21:00, 1.09,8.0,1.90,55.50,30.00
2021-06-09 22:00, 1.04,8.3,1.60,61.50,34.00
2021-06-09 23:00, 1.19,5.3,2.03,57.50,28.00
2021-06-10 00:00, 1.08,5.9,1.77,56.50,29.00
2021-06-10 01:00, 0.99,6.3,1.67,56.50,33.00
2021-06-10 02:00, 1.10,5.1,1.77,59.50,30.00
2021-06-10 03:00, 1.02,8.3,1.53,56.50,30.00
2021-06-10 04:00, 0.99,5.7,1.57,57.50,28.00
2021-06-10 05:00, 0.93,7.4,1.41,54.50,28.00
2021-06-10 06:00, 0.90,8.3,1.69,56.50,30.00
2021-06-10 07:00, 0.90,7.1,1.53,56.50,29.00
2021-06-10 08:00, 0.90,8.7,1.30,55.50,30.00
2021-06-10 09:00, 0.86,5.9,1.40,60.50,30.00
2021-06-10 10:00, 0.94,8.0,1.52,58.50,31.00
2021-06-10 11:00, 0.93,5.9,1.69,53.50,34.00
2021-06-10 12:00, 1.00,8.3,1.43,58.50,33.00
2021-06-10 13:00, 0.98,5.0,1.40,57.50,34.00
2021-06-10 14:00, 0.99,7.7,1.63,51.50,36.00
2021-06-10 15:00, 1.02,8.3,1.61,58.50,37.00
2021-06-10 16:00, 0.95,7.4,1.45,47.50,35.00
2021-06-10 17:00, 0.91,8.3,1.39,50.50,33.00
2021-06-10 18:00, 0.91,7.7,1.55,49.50,32.00
2021-06-10 19:00, 0.92,7.7,1.37,50.50,35.00
2021-06-10 20:00, 0.96,8.3,1.47,53.50,34.00
2021-06-10 21:00, 0.96,8.7,1.47,56.50,35.00
2021-06-10 22:00, 1.04,8.0,1.57,54.50,28.00
2021-06-10 23:00, 1.04,4.8,1.77,54.50,30.00
2021-06-11 00:00, 0.99,5.7,1.75,55.50,29.00
2021-06-11 01:00, 0.99,5.7,1.54,55.50,30.00
2021-06-11 02:00, 0.99,5.4,1.52,53.50,29.00
2021-06-11 03:00, 0.97,5.1,1.47,58.50,31.00
2021-06-11 04:00, 0.88,7.7,1.70,55.50,33.00
2021-06-11 05:00, 0.85,9.1,1.25,56.50,30.00
2021-06-11 06:00, 0.89,5.9,1.54,54.50,27.00
2021-06-11 07:00, 0.79,5.1,1.32,55.50,30.00
2021-06-11 08:00, 0.80,8.0,1.27,57.50,29.00
2021-06-11 09:00, 0.80,5.1,1.23,58.50,27.00
2021-06-11 10:00, 0.76,4.8,1.19,52.50,28.00
2021-06-11 11:00, 0.79,9.1,1.26,55.50,32.00
2021-06-11 12:00, 0.75,9.1,1.37,54.50,32.00
2021-06-11 13:00, 0.66,9.1,0.96,54.50,32.00
2021-06-11 14:00, 0.72,8.7,1.08,54.50,30.00
2021-06-11 15:00, 0.75,9.1,1.25,53.50,35.00
2021-06-11 16:00, 0.73,9.1,1.05,54.50,34.00
2021-06-11 17:00, 0.74,8.3,1.26,51.50,35.00
2021-06-11 18:00, 0.73,9.5,1.37,54.50,37.00
2021-06-11 19:00, 0.70,7.1,1.08,57.50,36.00
2021-06-11 20:00, 0.71,7.7,1.31,52.50,34.00
2021-06-11 21:00, 0.66,8.3,1.09,53.50,34.00
2021-06-11 22:00, 0.69,8.3,1.01,55.50,34.00
2021-06-11 23:00, 0.68,8.3,1.15,55.50,35.00
2021-06-12 00:00, 0.73,6.3,1.11,58.50,33.00
2021-06-12 01:00, 0.76,8.0,1.35,57.50,31.00
2021-06-12 02:00, 0.77,9.1,1.17,55.50,31.00
2021-06-12 03:00, 0.74,4.3,1.16,56.50,33.00
2021-06-12 04:00, 0.80,8.7,1.37,55.50,28.00
2021-06-12 05:00, 0.83,9.1,1.19,56.50,29.00
2021-06-12 06:00, 0.86,4.8,1.45,58.50,28.00
2021-06-12 07:00, 0.80,4.9,1.13,55.50,31.00
2021-06-12 08:00, 0.78,5.4,1.18,56.50,30.00
2021-06-12 09:00, 0.78,5.6,1.54,58.50,28.00
2021-06-12 10:00, 0.78,6.1,1.26,58.50,25.00
2021-06-12 11:00, 0.71,9.1,1.15,59.50,30.00
2021-06-12 12:00, 0.72,5.1,1.20,60.50,28.00
2021-06-12 13:00, 0.66,9.5,1.09,54.50,33.00
2021-06-12 14:00, 0.71,8.7,1.05,57.50,29.00
2021-06-12 15:00, 0.65,9.1,1.10,61.50,33.00
2021-06-12 16:00, 0.69,9.1,1.12,56.50,32.00
2021-06-12 17:00, 0.70,9.1,1.21,55.50,32.00
2021-06-12 18:00, 0.66,9.1,1.16,58.50,37.00
2021-06-12 19:00, 0.69,9.1,1.24,55.50,34.00
2021-06-12 20:00, 0.67,8.3,1.04,57.50,31.00
2021-06-12 21:00, 0.64,8.3,1.09,56.50,32.00
2021-06-12 22:00, 0.64,8.0,0.96,60.50,33.00
2021-06-12 23:00, 0.66,8.3,1.11,54.50,34.00
2021-06-13 00:00, 0.65,8.7,0.93,59.50,35.00
2021-06-13 01:00, 0.60,9.1,1.00,55.50,31.00
2021-06-13 02:00, 0.59,9.1,0.99,57.50,30.00
2021-06-13 03:00, 0.57,7.1,0.94,55.50,30.00
2021-06-13 04:00, 0.65,8.7,0.96,55.50,26.00
2021-06-13 05:00, 0.61,4.2,0.88,55.50,30.00
2021-06-13 06:00, 0.67,4.3,1.18,53.50,27.00
2021-06-13 07:00, 0.64,4.4,0.97,55.50,28.00
2021-06-13 08:00, 0.65,4.1,0.95,55.50,29.00
2021-06-13 09:00, 0.68,4.7,1.00,60.50,30.00
2021-06-13 10:00, 0.70,4.4,1.26,59.50,30.00
2021-06-13 11:00, 0.70,4.7,1.14,63.50,29.00
2021-06-13 12:00, 0.72,8.3,1.10,60.50,28.00
2021-06-13 13:00, 0.70,4.7,1.09,62.50,28.00
2021-06-13 14:00, 0.64,5.0,1.21,62.50,33.00
2021-06-13 15:00, 0.75,4.5,1.18,59.50,33.00
2021-06-13 16:00, 0.79,4.5,1.32,63.50,29.00
2021-06-13 17:00, 0.73,4.7,1.15,61.50,32.00
2021-06-13 18:00, 0.78,4.3,1.75,59.50,33.00
2021-06-13 19:00, 0.79,4.4,1.32,59.50,32.00
2021-06-13 20:00, 0.73,4.2,1.23,61.50,34.00
2021-06-13 21:00, 0.75,4.0,1.32,58.50,31.00
2021-06-13 22:00, 0.73,4.8,1.21,56.50,31.00
2021-06-13 23:00, 0.69,4.7,1.32,56.50,32.00
2021-06-14 00:00, 0.69,4.9,1.12,57.50,30.00
2021-06-14 01:00, 0.75,8.7,1.12,54.50,30.00
2021-06-14 02:00, 0.75,4.4,1.40,59.50,29.00
2021-06-14 03:00, 0.86,4.8,1.40,59.50,28.00
2021-06-14 04:00, 0.91,4.8,1.69,61.50,28.00
2021-06-14 05:00, 0.84,4.7,1.47,60.50,28.00
2021-06-14 06:00, 0.85,4.5,1.35,58.50,26.00
2021-06-14 07:00, 0.88,4.8,1.34,60.50,28.00
2021-06-14 08:00, 0.86,4.9,1.25,57.50,27.00
2021-06-14 09:00, 0.82,5.3,1.35,58.50,32.00
2021-06-14 10:00, 0.94,4.9,1.48,59.50,26.00
2021-06-14 11:00, 0.94,5.6,1.47,58.50,27.00
2021-06-14 12:00, 0.91,5.4,1.54,59.50,27.00
2021-06-14 13:00, 0.90,5.6,1.36,59.50,30.00
2021-06-14 14:00, 0.97,5.6,1.37,64.50,30.00
2021-06-14 15:00, 0.93,5.6,1.57,66.50,29.00
2021-06-14 16:00, 0.93,5.9,1.61,63.50,28.00
2021-06-14 17:00, 1.02,5.1,1.74,60.50,28.00
2021-06-14 18:00, 1.07,5.6,1.73,60.50,27.00
2021-06-14 19:00, 0.97,5.9,1.76,59.50,30.00
2021-06-14 20:00, 0.97,5.9,1.53,63.50,29.00
2021-06-14 21:00, 0.94,5.7,1.56,60.50,30.00
2021-06-14 22:00, 0.96,5.3,1.73,61.50,29.00
2021-06-14 23:00, 0.93,6.1,1.46,57.50,29.00
2021-06-15 00:00, 0.93,5.4,1.32,60.50,30.00
2021-06-15 01:00, 0.94,6.9,1.59,59.50,30.00
2021-06-15 02:00, 0.96,6.5,1.52,60.50,28.00
2021-06-15 03:00, 0.92,5.7,1.82,60.50,29.00
2021-06-15 04:00, 0.98,5.3,1.70,61.50,28.00
2021-06-15 05:00, 1.00,5.7,1.58,61.50,28.00
2021-06-15 06:00, 0.99,5.6,1.71,60.50,29.00
2021-06-15 07:00, 1.05,4.9,1.77,59.50,28.00
2021-06-15 08:00, 1.06,5.3,1.76,59.50,28.00
2021-06-15 09:00, 1.02,5.7,1.57,59.50,30.00
2021-06-15 10:00, 1.00,6.3,1.62,61.50,30.00
2021-06-15 11:00, 1.09,6.7,1.83,63.50,34.00
2021-06-15 12:00, 1.06,5.7,2.01,64.50,33.00
2021-06-15 13:00, 1.15,6.1,1.79,60.50,28.00
2021-06-15 14:00, 1.25,6.1,2.06,66.50,29.00
2021-06-15 15:00, 1.14,5.9,1.91,60.50,27.00
2021-06-15 16:00, 1.08,5.7,2.11,61.50,29.00
2021-06-15 17:00, 1.18,5.9,1.93,63.50,27.00
2021-06-15 18:00, 1.14,6.1,1.91,62.50,28.00
2021-06-15 19:00, 1.16,6.5,1.88,64.50,28.00
2021-06-15 20:00, 1.15,6.3,1.85,61.50,28.00
2021-06-15 21:00, 1.22,5.4,1.98,63.50,27.00
2021-06-15 22:00, 1.28,5.4,1.97,60.50,25.00
2021-06-15 23:00, 1.16,6.3,1.95,59.50,25.00
2021-06-16 00:00, 1.06,5.6,1.66,60.50,28.00
2021-06-16 01:00, 0.99,5.9,1.46,61.50,29.00
2021-06-16 02:00, 1.10,6.9,1.83,64.50,28.00
2021-06-16 03:00, 1.19,8.0,1.90,60.50,28.00
2021-06-16 04:00, 1.11,5.0,2.23,61.50,26.00
2021-06-16 05:00, 1.00,7.4,1.65,63.50,28.00
2021-06-16 06:00, 1.12,6.7,1.92,61.50,26.00
2021-06-16 07:00, 1.14,5.0,1.90,60.50,27.00
2021-06-16 08:00, 0.98,5.7,1.69,63.50,29.00
2021-06-16 09:00, 1.13,5.6,1.91,63.50,28.00
2021-06-16 10:00, 1.11,5.7,1.68,67.50,30.00
2021-06-16 11:00, 1.36,5.7,2.62,64.50,31.00
2021-06-16 12:00, 1.39,5.6,2.24,62.50,27.00
2021-06-16 13:00, 1.28,5.6,2.02,66.50,31.00
2021-06-16 14:00, 1.33,6.1,1.97,65.50,28.00
2021-06-16 15:00, 1.36,6.7,2.36,65.50,32.00
2021-06-16 16:00, 1.32,7.1,2.24,62.50,29.00
2021-06-16 17:00, 1.37,6.3,2.45,62.50,30.00
2021-06-16 18:00, 1.27,6.1,2.23,65.50,32.00
2021-06-16 19:00, 1.21,6.1,1.84,63.50,31.00
2021-06-16 20:00, 1.36,6.1,2.44,60.50,28.00
2021-06-16 21:00, 1.28,6.3,2.33,62.50,28.00
2021-06-16 22:00, 1.23,6.7,1.84,60.50,29.00
2021-06-16 23:00, 1.27,6.3,1.85,60.50,31.00
2021-06-17 00:00, 1.28,8.3,1.83,58.50,28.00
2021-06-17 01:00, 1.31,6.7,2.00,59.50,29.00
2021-06-17 02:00, 1.31,6.1,2.09,62.50,30.00
2021-06-17 03:00, 1.23,6.9,1.89,60.50,29.00
2021-06-17 04:00, 1.34,5.9,1.89,64.50,29.00
2021-06-17 05:00, 1.32,6.7,2.30,59.50,27.00
2021-06-17 06:00, 1.28,6.7,2.40,59.50,32.00
2021-06-17 07:00, 1.44,6.3,2.44,62.50,28.00
2021-06-17 08:00, 1.29,6.3,2.09,62.50,32.00
2021-06-17 09:00, 1.39,6.9,2.32,58.50,26.00
2021-06-17 10:00, 1.38,6.7,2.18,65.50,32.00
2021-06-17 11:00, 1.37,7.1,2.25,58.50,29.00
2021-06-17 12:00, 1.39,7.1,2.16,59.50,28.00
2021-06-17 13:00, 1.39,5.7,2.15,58.50,26.00
2021-06-17 14:00, 1.32,5.7,2.02,57.50,28.00
2021-06-17 15:00, 1.33,5.7,1.98,58.50,29.00
2021-06-17 16:00, 1.24,6.1,2.39,54.50,31.00
2021-06-17 17:00, 1.27,6.3,1.95,58.50,27.00
2021-06-17 18:00, 1.22,8.7,1.99,61.50,29.00
2021-06-17 19:00, 1.18,6.9,1.81,61.50,28.00
2021-06-17 20:00, 1.18,8.7,2.02,58.50,33.00
2021-06-17 21:00, 1.13,8.3,1.82,57.50,30.00
2021-06-17 22:00, 1.21,8.0,1.85,57.50,27.00
2021-06-17 23:00, 1.14,5.1,1.76,56.50,28.00
2021-06-18 00:00, 1.32,6.3,2.09,58.50,26.00
2021-06-18 01:00, 1.25,5.9,2.24,60.50,28.00
2021-06-18 02:00, 1.30,5.9,2.05,61.50,26.00
2021-06-18 03:00, 1.17,7.7,1.84,59.50,26.00
2021-06-18 04:00, 1.20,7.7,1.77,61.50,25.00
2021-06-18 05:00, 1.32,7.4,1.91,61.50,23.00
2021-06-18 06:00, 1.42,6.9,2.48,62.50,22.00
2021-06-18 07:00, 1.27,6.3,2.02,61.50,22.00
2021-06-18 08:00, 1.41,8.7,2.09,61.50,23.00
2021-06-18 09:00, 1.29,8.3,2.59,60.50,25.00
2021-06-18 10:00, 1.24,8.0,1.90,58.50,25.00
2021-06-18 11:00, 1.24,6.5,1.96,60.50,26.00
2021-06-18 12:00, 1.27,7.1,1.87,58.50,25.00
2021-06-18 13:00, 1.28,9.5,1.98,60.50,25.00
2021-06-18 14:00, 1.30,7.1,2.28,60.50,26.00
2021-06-18 15:00, 1.19,7.7,2.46,63.50,28.00
2021-06-18 16:00, 1.17,6.9,2.14,62.50,31.00
2021-06-18 17:00, 1.20,6.3,2.27,63.50,28.00
2021-06-18 18:00, 1.18,6.9,1.82,63.50,28.00
2021-06-18 19:00, 1.08,6.9,1.72,59.50,29.00
2021-06-18 20:00, 1.09,6.5,1.71,58.50,29.00
2021-06-18 21:00, 1.12,8.3,2.11,58.50,27.00
2021-06-18 22:00, 1.02,5.7,1.84,53.50,30.00
2021-06-18 23:00, 1.09,6.9,1.61,59.50,29.00
2021-06-19 00:00, 1.05,6.5,1.48,58.50,30.00
2021-06-19 01:00, 0.95,6.9,1.52,59.50,29.00
2021-06-19 02:00, 1.02,6.5,2.34,61.50,28.00
2021-06-19 03:00, 1.12,6.3,1.84,61.50,28.00
2021-06-19 04:00, 1.08,7.1,1.74,60.50,27.00
2021-06-19 05:00, 1.09,7.1,1.64,59.50,26.00
2021-06-19 06:00, 1.25,6.5,2.32,61.50,25.00
2021-06-19 07:00, 1.28,6.5,2.10,59.50,25.00
2021-06-19 08:00, 1.13,6.3,1.95,62.50,28.00
2021-06-19 09:00, 1.25,6.5,1.93,60.50,27.00
2021-06-19 10:00, 1.12,6.1,1.80,60.50,28.00
2021-06-19 11:00, 1.20,6.3,1.97,64.50,28.00
2021-06-19 12:00, 1.15,6.9,1.84,63.50,30.00
2021-06-19 13:00, 1.15,6.3,1.95,66.50,29.00
2021-06-19 14:00, 1.04,6.7,2.10,65.50,30.00
2021-06-19 15:00, 1.14,5.4,1.62,67.50,29.00
2021-06-19 16:00, 1.16,6.5,1.71,65.50,28.00